Year,Month,Day,Hour,Minute,Value (Times are PST for temperature in C)
2014,07,30,00,00,16.00
2014,07,30,00,01,15.90
2014,07,30,00,02,15.90
2014,07,30,00,03,15.90
2014,07,30,00,04,15.90
2014,07,30,00,05,15.90
2014,07,30,00,06,15.90
2014,07,30,00,07,15.80
2014,07,30,00,08,15.80
2014,07,30,00,09,15.80
2014,07,30,00,10,15.80
2014,07,30,00,11,15.80
2014,07,30,00,12,15.80
2014,07,30,00,13,15.80
2014,07,30,00,14,15.80
2014,07,30,00,15,15.80
2014,07,30,00,16,15.80
2014,07,30,00,17,15.80
2014,07,30,00,18,15.80
2014,07,30,00,19,15.80
2014,07,30,00,20,15.80
2014,07,30,00,21,15.80
2014,07,30,00,22,15.80
2014,07,30,00,23,15.80
2014,07,30,00,24,15.80
2014,07,30,00,25,15.80
2014,07,30,00,26,15.80
2014,07,30,00,27,15.80
2014,07,30,00,28,15.80
2014,07,30,00,29,15.80
2014,07,30,00,30,15.80
2014,07,30,00,31,15.70
2014,07,30,00,32,15.70
2014,07,30,00,33,15.70
2014,07,30,00,34,15.70
2014,07,30,00,35,15.70
2014,07,30,00,36,15.70
2014,07,30,00,37,15.60
2014,07,30,00,38,15.60
2014,07,30,00,39,15.60
2014,07,30,00,40,15.60
2014,07,30,00,41,15.60
2014,07,30,00,42,15.60
2014,07,30,00,43,15.50
2014,07,30,00,44,15.50
2014,07,30,00,45,15.50
2014,07,30,00,46,15.40
2014,07,30,00,47,15.40
2014,07,30,00,48,15.40
2014,07,30,00,49,15.30
2014,07,30,00,50,15.30
2014,07,30,00,51,15.30
2014,07,30,00,52,15.20
2014,07,30,00,53,15.20
2014,07,30,00,54,15.20
2014,07,30,00,55,15.20
2014,07,30,00,56,15.10
2014,07,30,00,57,15.10
2014,07,30,00,58,15.10
2014,07,30,00,59,15.00
2014,07,30,01,00,15.00
2014,07,30,01,01,15.00
2014,07,30,01,02,15.00
2014,07,30,01,03,15.00
2014,07,30,01,04,15.00
2014,07,30,01,05,15.00
2014,07,30,01,06,15.00
2014,07,30,01,07,15.00
2014,07,30,01,08,15.00
2014,07,30,01,09,15.00
2014,07,30,01,10,15.00
2014,07,30,01,11,14.90
2014,07,30,01,12,14.90
2014,07,30,01,13,14.80
2014,07,30,01,14,14.80
2014,07,30,01,15,14.80
2014,07,30,01,16,14.80
2014,07,30,01,17,14.70
2014,07,30,01,18,14.70
2014,07,30,01,19,14.70
2014,07,30,01,20,14.70
2014,07,30,01,21,14.70
2014,07,30,01,22,14.60
2014,07,30,01,23,14.60
2014,07,30,01,24,14.60
2014,07,30,01,25,14.60
2014,07,30,01,26,14.60
2014,07,30,01,27,14.60
2014,07,30,01,28,14.60
2014,07,30,01,29,14.50
2014,07,30,01,30,14.50
2014,07,30,01,31,14.50
2014,07,30,01,32,14.50
2014,07,30,01,33,14.50
2014,07,30,01,34,14.40
2014,07,30,01,35,14.40
2014,07,30,01,36,14.40
2014,07,30,01,37,14.40
2014,07,30,01,38,14.40
2014,07,30,01,39,14.40
2014,07,30,01,40,14.30
2014,07,30,01,41,14.30
2014,07,30,01,42,14.30
2014,07,30,01,43,14.30
2014,07,30,01,44,14.30
2014,07,30,01,45,14.30
2014,07,30,01,46,14.20
2014,07,30,01,47,14.20
2014,07,30,01,48,14.20
2014,07,30,01,49,14.20
2014,07,30,01,50,14.20
2014,07,30,01,51,14.20
2014,07,30,01,52,14.10
2014,07,30,01,53,14.10
2014,07,30,01,54,14.10
2014,07,30,01,55,14.10
2014,07,30,01,56,14.00
2014,07,30,01,57,14.00
2014,07,30,01,58,14.00
2014,07,30,01,59,13.90
2014,07,30,02,00,13.90
2014,07,30,02,01,13.90
2014,07,30,02,02,13.90
2014,07,30,02,03,13.90
2014,07,30,02,04,13.90
2014,07,30,02,05,13.90
2014,07,30,02,06,13.80
2014,07,30,02,07,13.80
2014,07,30,02,08,13.80
2014,07,30,02,09,13.80
2014,07,30,02,10,13.80
2014,07,30,02,11,13.80
2014,07,30,02,12,13.80
2014,07,30,02,13,13.80
2014,07,30,02,14,13.80
2014,07,30,02,15,13.80
2014,07,30,02,16,13.80
2014,07,30,02,17,13.80
2014,07,30,02,18,13.70
2014,07,30,02,19,13.70
2014,07,30,02,20,13.70
2014,07,30,02,21,13.70
2014,07,30,02,22,13.70
2014,07,30,02,23,13.70
2014,07,30,02,24,13.70
2014,07,30,02,25,13.70
2014,07,30,02,26,13.70
2014,07,30,02,27,13.70
2014,07,30,02,28,13.70
2014,07,30,02,29,13.70
2014,07,30,02,30,13.70
2014,07,30,02,31,13.70
2014,07,30,02,32,13.70
2014,07,30,02,33,13.70
2014,07,30,02,34,13.70
2014,07,30,02,35,13.60
2014,07,30,02,36,13.60
2014,07,30,02,37,13.60
2014,07,30,02,38,13.60
2014,07,30,02,39,13.60
2014,07,30,02,40,13.60
2014,07,30,02,41,13.60
2014,07,30,02,42,13.60
2014,07,30,02,43,13.60
2014,07,30,02,44,13.60
2014,07,30,02,45,13.50
2014,07,30,02,46,13.50
2014,07,30,02,47,13.50
2014,07,30,02,48,13.50
2014,07,30,02,49,13.50
2014,07,30,02,50,13.50
2014,07,30,02,51,13.50
2014,07,30,02,52,13.50
2014,07,30,02,53,13.50
2014,07,30,02,54,13.50
2014,07,30,02,55,13.50
2014,07,30,02,56,13.50
2014,07,30,02,57,13.50
2014,07,30,02,58,13.60
2014,07,30,02,59,13.60
2014,07,30,03,00,13.60
2014,07,30,03,01,13.60
2014,07,30,03,02,13.60
2014,07,30,03,03,13.60
2014,07,30,03,04,13.60
2014,07,30,03,05,13.60
2014,07,30,03,06,13.60
2014,07,30,03,07,13.60
2014,07,30,03,08,13.60
2014,07,30,03,09,13.60
2014,07,30,03,10,13.60
2014,07,30,03,11,13.60
2014,07,30,03,12,13.60
2014,07,30,03,13,13.60
2014,07,30,03,14,13.60
2014,07,30,03,15,13.60
2014,07,30,03,16,13.70
2014,07,30,03,17,13.60
2014,07,30,03,18,13.60
2014,07,30,03,19,13.70
2014,07,30,03,20,13.70
2014,07,30,03,21,13.70
2014,07,30,03,22,13.70
2014,07,30,03,23,13.70
2014,07,30,03,24,13.70
2014,07,30,03,25,13.70
2014,07,30,03,26,13.70
2014,07,30,03,27,13.70
2014,07,30,03,28,13.70
2014,07,30,03,29,13.70
2014,07,30,03,30,13.70
2014,07,30,03,31,13.70
2014,07,30,03,32,13.70
2014,07,30,03,33,13.70
2014,07,30,03,34,13.70
2014,07,30,03,35,13.70
2014,07,30,03,36,13.70
2014,07,30,03,37,13.70
2014,07,30,03,38,13.70
2014,07,30,03,39,13.70
2014,07,30,03,40,13.70
2014,07,30,03,41,13.70
2014,07,30,03,42,13.60
2014,07,30,03,43,13.60
2014,07,30,03,44,13.60
2014,07,30,03,45,13.60
2014,07,30,03,46,13.60
2014,07,30,03,47,13.60
2014,07,30,03,48,13.70
2014,07,30,03,49,13.70
2014,07,30,03,50,13.70
2014,07,30,03,51,13.70
2014,07,30,03,52,13.70
2014,07,30,03,53,13.70
2014,07,30,03,54,13.80
2014,07,30,03,55,13.80
2014,07,30,03,56,13.80
2014,07,30,03,57,13.80
2014,07,30,03,58,13.80
2014,07,30,03,59,13.90
2014,07,30,04,00,13.90
2014,07,30,04,01,13.90
2014,07,30,04,02,14.00
2014,07,30,04,03,14.00
2014,07,30,04,04,14.00
2014,07,30,04,05,14.10
2014,07,30,04,06,14.10
2014,07,30,04,07,14.20
2014,07,30,04,08,14.30
2014,07,30,04,09,14.40
2014,07,30,04,10,14.40
2014,07,30,04,11,14.40
2014,07,30,04,12,14.50
2014,07,30,04,13,14.60
2014,07,30,04,14,14.60
2014,07,30,04,15,14.70
2014,07,30,04,16,14.70
2014,07,30,04,17,14.70
2014,07,30,04,18,14.70
2014,07,30,04,19,14.70
2014,07,30,04,20,14.80
2014,07,30,04,21,14.90
2014,07,30,04,22,15.00
2014,07,30,04,23,15.00
2014,07,30,04,24,15.00
2014,07,30,04,25,15.20
2014,07,30,04,26,15.30
2014,07,30,04,27,15.40
2014,07,30,04,28,15.50
2014,07,30,04,29,15.60
2014,07,30,04,30,15.70
2014,07,30,04,31,15.70
2014,07,30,04,32,15.80
2014,07,30,04,33,15.80
2014,07,30,04,34,15.80
2014,07,30,04,35,15.80
2014,07,30,04,36,15.80
2014,07,30,04,37,15.80
2014,07,30,04,38,15.80
2014,07,30,04,39,15.80
2014,07,30,04,40,15.80
2014,07,30,04,41,15.80
2014,07,30,04,42,15.80
2014,07,30,04,43,15.80
2014,07,30,04,44,15.80
2014,07,30,04,45,15.80
2014,07,30,04,46,15.80
2014,07,30,04,47,15.80
2014,07,30,04,48,15.80
2014,07,30,04,49,15.80
2014,07,30,04,50,15.80
2014,07,30,04,51,15.80
2014,07,30,04,52,15.80
2014,07,30,04,53,15.80
2014,07,30,04,54,15.80
2014,07,30,04,55,15.70
2014,07,30,04,56,15.70
2014,07,30,04,57,15.70
2014,07,30,04,58,15.70
2014,07,30,04,59,15.60
2014,07,30,05,00,15.60
2014,07,30,05,01,15.60
2014,07,30,05,02,15.60
2014,07,30,05,03,15.60
2014,07,30,05,04,15.60
2014,07,30,05,05,15.60
2014,07,30,05,06,15.60
2014,07,30,05,07,15.60
2014,07,30,05,08,15.60
2014,07,30,05,09,15.60
2014,07,30,05,10,15.60
2014,07,30,05,11,15.60
2014,07,30,05,12,15.60
2014,07,30,05,13,15.60
2014,07,30,05,14,15.60
2014,07,30,05,15,15.60
2014,07,30,05,16,15.60
2014,07,30,05,17,15.60
2014,07,30,05,18,15.60
2014,07,30,05,19,15.60
2014,07,30,05,20,15.60
2014,07,30,05,21,15.60
2014,07,30,05,22,15.60
2014,07,30,05,23,15.60
2014,07,30,05,24,15.60
2014,07,30,05,25,15.60
2014,07,30,05,26,15.60
2014,07,30,05,27,15.60
2014,07,30,05,28,15.60
2014,07,30,05,29,15.60
2014,07,30,05,30,15.60
2014,07,30,05,31,15.50
2014,07,30,05,32,15.50
2014,07,30,05,33,15.40
2014,07,30,05,34,15.40
2014,07,30,05,35,15.40
2014,07,30,05,36,15.30
2014,07,30,05,37,15.30
2014,07,30,05,38,15.30
2014,07,30,05,39,15.20
2014,07,30,05,40,15.20
2014,07,30,05,41,15.20
2014,07,30,05,42,15.10
2014,07,30,05,43,15.10
2014,07,30,05,44,15.10
2014,07,30,05,45,15.00
2014,07,30,05,46,15.00
2014,07,30,05,47,15.00
2014,07,30,05,48,15.00
2014,07,30,05,49,15.00
2014,07,30,05,50,15.00
2014,07,30,05,51,15.00
2014,07,30,05,52,15.00
2014,07,30,05,53,15.00
2014,07,30,05,54,15.00
2014,07,30,05,55,15.00
2014,07,30,05,56,15.00
2014,07,30,05,57,15.00
2014,07,30,05,58,15.00
2014,07,30,05,59,15.00
2014,07,30,06,00,15.00
2014,07,30,06,01,14.90
2014,07,30,06,02,14.90
2014,07,30,06,03,14.90
2014,07,30,06,04,14.90
2014,07,30,06,05,14.90
2014,07,30,06,06,14.90
2014,07,30,06,07,14.90
2014,07,30,06,08,14.90
2014,07,30,06,09,15.00
2014,07,30,06,10,15.00
2014,07,30,06,11,15.00
2014,07,30,06,12,15.00
2014,07,30,06,13,15.00
2014,07,30,06,14,15.00
2014,07,30,06,15,15.00
2014,07,30,06,16,15.00
2014,07,30,06,17,15.00
2014,07,30,06,18,15.00
2014,07,30,06,19,15.00
2014,07,30,06,20,14.90
2014,07,30,06,21,14.90
2014,07,30,06,22,14.90
2014,07,30,06,23,14.90
2014,07,30,06,24,14.80
2014,07,30,06,25,14.80
2014,07,30,06,26,14.80
2014,07,30,06,27,14.80
2014,07,30,06,28,14.80
2014,07,30,06,29,14.80
2014,07,30,06,30,14.80
2014,07,30,06,31,14.80
2014,07,30,06,32,14.80
2014,07,30,06,33,14.80
2014,07,30,06,34,14.80
2014,07,30,06,35,14.80
2014,07,30,06,36,14.80
2014,07,30,06,37,14.80
2014,07,30,06,38,14.80
2014,07,30,06,39,14.80
2014,07,30,06,40,14.80
2014,07,30,06,41,14.80
2014,07,30,06,42,14.80
2014,07,30,06,43,14.80
2014,07,30,06,44,14.70
2014,07,30,06,45,14.70
2014,07,30,06,46,14.80
2014,07,30,06,47,14.80
2014,07,30,06,48,14.80
2014,07,30,06,49,14.80
2014,07,30,06,50,14.90
2014,07,30,06,51,15.00
2014,07,30,06,52,15.00
2014,07,30,06,53,15.20
2014,07,30,06,54,15.30
2014,07,30,06,55,15.40
2014,07,30,06,56,15.50
2014,07,30,06,57,15.60
2014,07,30,06,58,15.60
2014,07,30,06,59,15.70
2014,07,30,07,00,15.70
2014,07,30,07,01,15.80
2014,07,30,07,02,15.80
2014,07,30,07,03,15.90
2014,07,30,07,04,15.90
2014,07,30,07,05,16.00
2014,07,30,07,06,16.00
2014,07,30,07,07,16.10
2014,07,30,07,08,16.20
2014,07,30,07,09,16.20
2014,07,30,07,10,16.30
2014,07,30,07,11,16.40
2014,07,30,07,12,16.40
2014,07,30,07,13,16.50
2014,07,30,07,14,16.50
2014,07,30,07,15,16.60
2014,07,30,07,16,16.70
2014,07,30,07,17,16.70
2014,07,30,07,18,16.70
2014,07,30,07,19,16.80
2014,07,30,07,20,16.90
2014,07,30,07,21,17.00
2014,07,30,07,22,17.10
2014,07,30,07,23,17.10
2014,07,30,07,24,17.20
2014,07,30,07,25,17.20
2014,07,30,07,26,17.30
2014,07,30,07,27,17.30
2014,07,30,07,28,17.40
2014,07,30,07,29,17.40
2014,07,30,07,30,17.40
2014,07,30,07,31,17.50
2014,07,30,07,32,17.60
2014,07,30,07,33,17.60
2014,07,30,07,34,17.60
2014,07,30,07,35,17.60
2014,07,30,07,36,17.60
2014,07,30,07,37,17.60
2014,07,30,07,38,17.70
2014,07,30,07,39,17.70
2014,07,30,07,40,17.70
2014,07,30,07,41,17.70
2014,07,30,07,42,17.80
2014,07,30,07,43,17.80
2014,07,30,07,44,17.80
2014,07,30,07,45,17.90
2014,07,30,07,46,17.90
2014,07,30,07,47,17.90
2014,07,30,07,48,18.00
2014,07,30,07,49,18.00
2014,07,30,07,50,18.10
2014,07,30,07,51,18.10
2014,07,30,07,52,18.10
2014,07,30,07,53,18.10
2014,07,30,07,54,18.20
2014,07,30,07,55,18.20
2014,07,30,07,56,18.20
2014,07,30,07,57,18.20
2014,07,30,07,58,18.20
2014,07,30,07,59,18.20
2014,07,30,08,00,18.20
2014,07,30,08,01,18.20
2014,07,30,08,02,18.20
2014,07,30,08,03,18.30
2014,07,30,08,04,18.30
2014,07,30,08,05,18.30
2014,07,30,08,06,18.20
2014,07,30,08,07,18.10
2014,07,30,08,08,18.10
2014,07,30,08,09,18.00
2014,07,30,08,10,18.00
2014,07,30,08,11,17.90
2014,07,30,08,12,17.80
2014,07,30,08,13,17.80
2014,07,30,08,14,17.80
2014,07,30,08,15,17.70
2014,07,30,08,16,17.70
2014,07,30,08,17,17.60
2014,07,30,08,18,17.60
2014,07,30,08,19,17.60
2014,07,30,08,20,17.60
2014,07,30,08,21,17.50
2014,07,30,08,22,17.50
2014,07,30,08,23,17.40
2014,07,30,08,24,17.40
2014,07,30,08,25,17.40
2014,07,30,08,26,17.40
2014,07,30,08,27,17.40
2014,07,30,08,28,17.50
2014,07,30,08,29,17.50
2014,07,30,08,30,17.50
2014,07,30,08,31,17.50
2014,07,30,08,32,17.50
2014,07,30,08,33,17.50
2014,07,30,08,34,17.40
2014,07,30,08,35,17.40
2014,07,30,08,36,17.40
2014,07,30,08,37,17.40
2014,07,30,08,38,17.40
2014,07,30,08,39,17.40
2014,07,30,08,40,17.40
2014,07,30,08,41,17.40
2014,07,30,08,42,17.50
2014,07,30,08,43,17.50
2014,07,30,08,44,17.50
2014,07,30,08,45,17.60
2014,07,30,08,46,17.60
2014,07,30,08,47,17.60
2014,07,30,08,48,17.70
2014,07,30,08,49,17.70
2014,07,30,08,50,17.70
2014,07,30,08,51,17.70
2014,07,30,08,52,17.80
2014,07,30,08,53,17.80
2014,07,30,08,54,17.80
2014,07,30,08,55,17.90
2014,07,30,08,56,18.00
2014,07,30,08,57,18.00
2014,07,30,08,58,18.10
2014,07,30,08,59,18.20
2014,07,30,09,00,18.20
2014,07,30,09,01,18.30
2014,07,30,09,02,18.40
2014,07,30,09,03,18.50
2014,07,30,09,04,18.60
2014,07,30,09,05,18.70
2014,07,30,09,06,18.80
2014,07,30,09,07,18.90
2014,07,30,09,08,19.10
2014,07,30,09,09,19.30
2014,07,30,09,10,19.40
2014,07,30,09,11,19.50
2014,07,30,09,12,19.70
2014,07,30,09,13,19.80
2014,07,30,09,14,20.00
2014,07,30,09,15,20.10
2014,07,30,09,16,20.20
2014,07,30,09,17,20.40
2014,07,30,09,18,20.60
2014,07,30,09,19,20.80
2014,07,30,09,20,21.00
2014,07,30,09,21,21.10
2014,07,30,09,22,21.20
2014,07,30,09,23,21.40
2014,07,30,09,24,21.50
2014,07,30,09,25,21.70
2014,07,30,09,26,21.80
2014,07,30,09,27,21.90
2014,07,30,09,28,22.00
2014,07,30,09,29,22.10
2014,07,30,09,30,22.20
2014,07,30,09,31,22.30
2014,07,30,09,32,22.40
2014,07,30,09,33,22.50
2014,07,30,09,34,22.60
2014,07,30,09,35,22.70
2014,07,30,09,36,22.80
2014,07,30,09,37,22.90
2014,07,30,09,38,23.00
2014,07,30,09,39,23.10
2014,07,30,09,40,23.20
2014,07,30,09,41,23.20
2014,07,30,09,42,23.30
2014,07,30,09,43,23.30
2014,07,30,09,44,23.30
2014,07,30,09,45,23.40
2014,07,30,09,46,23.50
2014,07,30,09,47,23.50
2014,07,30,09,48,23.60
2014,07,30,09,49,23.70
2014,07,30,09,50,23.80
2014,07,30,09,51,23.90
2014,07,30,09,52,24.00
2014,07,30,09,53,24.10
2014,07,30,09,54,24.20
2014,07,30,09,55,24.30
2014,07,30,09,56,24.30
2014,07,30,09,57,24.40
2014,07,30,09,58,24.60
2014,07,30,09,59,24.70
2014,07,30,10,00,24.80
2014,07,30,10,01,25.00
2014,07,30,10,02,25.10
2014,07,30,10,03,25.30
2014,07,30,10,04,25.50
2014,07,30,10,05,25.60
2014,07,30,10,06,25.70
2014,07,30,10,07,25.80
2014,07,30,10,08,25.80
2014,07,30,10,09,25.90
2014,07,30,10,10,26.00
2014,07,30,10,11,26.10
2014,07,30,10,12,26.20
2014,07,30,10,13,26.30
2014,07,30,10,14,26.50
2014,07,30,10,15,26.60
2014,07,30,10,16,26.70
2014,07,30,10,17,26.80
2014,07,30,10,18,26.90
2014,07,30,10,19,26.90
2014,07,30,10,20,26.90
2014,07,30,10,21,26.90
2014,07,30,10,22,27.00
2014,07,30,10,23,27.00
2014,07,30,10,24,27.00
2014,07,30,10,25,27.00
2014,07,30,10,26,27.10
2014,07,30,10,27,27.10
2014,07,30,10,28,27.20
2014,07,30,10,29,27.20
2014,07,30,10,30,27.30
2014,07,30,10,31,27.40
2014,07,30,10,32,27.50
2014,07,30,10,33,27.50
2014,07,30,10,34,27.60
2014,07,30,10,35,27.70
2014,07,30,10,36,27.70
2014,07,30,10,37,27.80
2014,07,30,10,38,27.80
2014,07,30,10,39,27.80
2014,07,30,10,40,27.80
2014,07,30,10,41,27.80
2014,07,30,10,42,27.90
2014,07,30,10,43,27.90
2014,07,30,10,44,28.00
2014,07,30,10,45,28.10
2014,07,30,10,46,28.10
2014,07,30,10,47,28.10
2014,07,30,10,48,28.20
2014,07,30,10,49,28.20
2014,07,30,10,50,28.30
2014,07,30,10,51,28.40
2014,07,30,10,52,28.50
2014,07,30,10,53,28.60
2014,07,30,10,54,28.70
2014,07,30,10,55,28.70
2014,07,30,10,56,28.70
2014,07,30,10,57,28.70
2014,07,30,10,58,28.80
2014,07,30,10,59,28.80
2014,07,30,11,00,28.80
2014,07,30,11,01,28.90
2014,07,30,11,02,28.90
2014,07,30,11,03,28.90
2014,07,30,11,04,29.00
2014,07,30,11,05,29.10
2014,07,30,11,06,29.10
2014,07,30,11,07,29.10
2014,07,30,11,08,29.20
2014,07,30,11,09,29.20
2014,07,30,11,10,29.30
2014,07,30,11,11,29.40
2014,07,30,11,12,29.40
2014,07,30,11,13,29.50
2014,07,30,11,14,29.60
2014,07,30,11,15,29.70
2014,07,30,11,16,29.70
2014,07,30,11,17,29.70
2014,07,30,11,18,29.70
2014,07,30,11,19,29.70
2014,07,30,11,20,29.60
2014,07,30,11,21,29.60
2014,07,30,11,22,29.70
2014,07,30,11,23,29.80
2014,07,30,11,24,29.80
2014,07,30,11,25,29.80
2014,07,30,11,26,29.80
2014,07,30,11,27,29.90
2014,07,30,11,28,30.00
2014,07,30,11,29,30.10
2014,07,30,11,30,30.10
2014,07,30,11,31,30.20
2014,07,30,11,32,30.30
2014,07,30,11,33,30.30
2014,07,30,11,34,30.30
2014,07,30,11,35,30.30
2014,07,30,11,36,30.30
2014,07,30,11,37,30.40
2014,07,30,11,38,30.50
2014,07,30,11,39,30.50
2014,07,30,11,40,30.50
2014,07,30,11,41,30.50
2014,07,30,11,42,30.50
2014,07,30,11,43,30.60
2014,07,30,11,44,30.60
2014,07,30,11,45,30.70
2014,07,30,11,46,30.80
2014,07,30,11,47,30.80
2014,07,30,11,48,30.90
2014,07,30,11,49,31.00
2014,07,30,11,50,31.10
2014,07,30,11,51,31.10
2014,07,30,11,52,31.00
2014,07,30,11,53,31.00
2014,07,30,11,54,31.00
2014,07,30,11,55,31.10
2014,07,30,11,56,31.10
2014,07,30,11,57,31.10
2014,07,30,11,58,31.10
2014,07,30,11,59,31.10
2014,07,30,12,00,31.10
2014,07,30,12,01,31.20
2014,07,30,12,02,31.30
2014,07,30,12,03,31.30
2014,07,30,12,04,31.40
2014,07,30,12,05,31.50
2014,07,30,12,06,31.60
2014,07,30,12,07,31.60
2014,07,30,12,08,31.60
2014,07,30,12,09,31.60
2014,07,30,12,10,31.70
2014,07,30,12,11,31.80
2014,07,30,12,12,31.80
2014,07,30,12,13,31.90
2014,07,30,12,14,32.10
2014,07,30,12,15,32.20
2014,07,30,12,16,32.20
2014,07,30,12,17,32.20
2014,07,30,12,18,32.20
2014,07,30,12,19,32.20
2014,07,30,12,20,32.20
2014,07,30,12,21,32.30
2014,07,30,12,22,32.30
2014,07,30,12,23,32.30
2014,07,30,12,24,32.30
2014,07,30,12,25,32.30
2014,07,30,12,26,32.30
2014,07,30,12,27,32.30
2014,07,30,12,28,32.30
2014,07,30,12,29,32.30
2014,07,30,12,30,32.30
2014,07,30,12,31,32.20
2014,07,30,12,32,32.20
2014,07,30,12,33,32.20
2014,07,30,12,34,32.30
2014,07,30,12,35,32.40
2014,07,30,12,36,32.50
2014,07,30,12,37,32.60
2014,07,30,12,38,32.80
2014,07,30,12,39,32.90
2014,07,30,12,40,33.00
2014,07,30,12,41,33.10
2014,07,30,12,42,33.20
2014,07,30,12,43,33.20
2014,07,30,12,44,33.30
2014,07,30,12,45,33.30
2014,07,30,12,46,33.30
2014,07,30,12,47,33.20
2014,07,30,12,48,33.20
2014,07,30,12,49,33.20
2014,07,30,12,50,33.20
2014,07,30,12,51,33.20
2014,07,30,12,52,33.20
2014,07,30,12,53,33.30
2014,07,30,12,54,33.40
2014,07,30,12,55,33.50
2014,07,30,12,56,33.50
2014,07,30,12,57,33.60
2014,07,30,12,58,33.60
2014,07,30,12,59,33.70
2014,07,30,13,00,33.80
2014,07,30,13,01,33.90
2014,07,30,13,02,34.00
2014,07,30,13,03,34.10
2014,07,30,13,04,34.10
2014,07,30,13,05,34.00
2014,07,30,13,06,34.00
2014,07,30,13,07,33.90
2014,07,30,13,08,33.80
2014,07,30,13,09,33.80
2014,07,30,13,10,33.80
2014,07,30,13,11,33.80
2014,07,30,13,12,33.70
2014,07,30,13,13,33.60
2014,07,30,13,14,33.30
2014,07,30,13,15,33.10
2014,07,30,13,16,32.90
2014,07,30,13,17,32.80
2014,07,30,13,18,32.70
2014,07,30,13,19,32.60
2014,07,30,13,20,32.50
2014,07,30,13,21,32.40
2014,07,30,13,22,32.40
2014,07,30,13,23,32.30
2014,07,30,13,24,32.20
2014,07,30,13,25,32.20
2014,07,30,13,26,32.10
2014,07,30,13,27,32.00
2014,07,30,13,28,31.90
2014,07,30,13,29,31.90
2014,07,30,13,30,31.80
2014,07,30,13,31,31.80
2014,07,30,13,32,31.70
2014,07,30,13,33,31.70
2014,07,30,13,34,31.60
2014,07,30,13,35,31.50
2014,07,30,13,36,31.50
2014,07,30,13,37,31.40
2014,07,30,13,38,31.40
2014,07,30,13,39,31.50
2014,07,30,13,40,31.50
2014,07,30,13,41,31.50
2014,07,30,13,42,31.60
2014,07,30,13,43,31.60
2014,07,30,13,44,31.60
2014,07,30,13,45,31.60
2014,07,30,13,46,31.60
2014,07,30,13,47,31.60
2014,07,30,13,48,31.70
2014,07,30,13,49,31.80
2014,07,30,13,50,31.80
2014,07,30,13,51,31.90
2014,07,30,13,52,31.90
2014,07,30,13,53,32.00
2014,07,30,13,54,32.10
2014,07,30,13,55,32.20
2014,07,30,13,56,32.30
2014,07,30,13,57,32.40
2014,07,30,13,58,32.50
2014,07,30,13,59,32.60
2014,07,30,14,00,32.70
2014,07,30,14,01,32.70
2014,07,30,14,02,32.70
2014,07,30,14,03,32.60
2014,07,30,14,04,32.60
2014,07,30,14,05,32.50
2014,07,30,14,06,32.40
2014,07,30,14,07,32.30
2014,07,30,14,08,32.30
2014,07,30,14,09,32.30
2014,07,30,14,10,32.20
2014,07,30,14,11,32.20
2014,07,30,14,12,32.10
2014,07,30,14,13,32.10
2014,07,30,14,14,31.90
2014,07,30,14,15,31.80
2014,07,30,14,16,31.60
2014,07,30,14,17,31.40
2014,07,30,14,18,31.30
2014,07,30,14,19,31.20
2014,07,30,14,20,31.10
2014,07,30,14,21,30.90
2014,07,30,14,22,30.80
2014,07,30,14,23,30.60
2014,07,30,14,24,30.60
2014,07,30,14,25,30.60
2014,07,30,14,26,30.50
2014,07,30,14,27,30.50
2014,07,30,14,28,30.50
2014,07,30,14,29,30.60
2014,07,30,14,30,30.60
2014,07,30,14,31,30.60
2014,07,30,14,32,30.60
2014,07,30,14,33,30.60
2014,07,30,14,34,30.50
2014,07,30,14,35,30.40
2014,07,30,14,36,30.30
2014,07,30,14,37,30.30
2014,07,30,14,38,30.20
2014,07,30,14,39,30.10
2014,07,30,14,40,30.10
2014,07,30,14,41,30.10
2014,07,30,14,42,30.00
2014,07,30,14,43,30.00
2014,07,30,14,44,30.00
2014,07,30,14,45,29.90
2014,07,30,14,46,29.90
2014,07,30,14,47,29.80
2014,07,30,14,48,29.80
2014,07,30,14,49,29.80
2014,07,30,14,50,29.80
2014,07,30,14,51,29.80
2014,07,30,14,52,29.80
2014,07,30,14,53,29.80
2014,07,30,14,54,29.70
2014,07,30,14,55,29.70
2014,07,30,14,56,29.60
2014,07,30,14,57,29.50
2014,07,30,14,58,29.40
2014,07,30,14,59,29.30
2014,07,30,15,00,29.30
2014,07,30,15,01,29.30
2014,07,30,15,02,29.20
2014,07,30,15,03,29.20
2014,07,30,15,04,29.20
2014,07,30,15,05,29.20
2014,07,30,15,06,29.20
2014,07,30,15,07,29.20
2014,07,30,15,08,29.10
2014,07,30,15,09,29.10
2014,07,30,15,10,29.10
2014,07,30,15,11,29.20
2014,07,30,15,12,29.20
2014,07,30,15,13,29.20
2014,07,30,15,14,29.30
2014,07,30,15,15,29.30
2014,07,30,15,16,29.40
2014,07,30,15,17,29.50
2014,07,30,15,18,29.50
2014,07,30,15,19,29.50
2014,07,30,15,20,29.50
2014,07,30,15,21,29.40
2014,07,30,15,22,29.40
2014,07,30,15,23,29.40
2014,07,30,15,24,29.40
2014,07,30,15,25,29.50
2014,07,30,15,26,29.60
2014,07,30,15,27,29.60
2014,07,30,15,28,29.70
2014,07,30,15,29,29.80
2014,07,30,15,30,29.80
2014,07,30,15,31,29.80
2014,07,30,15,32,29.80
2014,07,30,15,33,29.80
2014,07,30,15,34,29.80
2014,07,30,15,35,29.90
2014,07,30,15,36,29.90
2014,07,30,15,37,30.00
2014,07,30,15,38,30.00
2014,07,30,15,39,30.10
2014,07,30,15,40,30.10
2014,07,30,15,41,30.20
2014,07,30,15,42,30.30
2014,07,30,15,43,30.30
2014,07,30,15,44,30.30
2014,07,30,15,45,30.30
2014,07,30,15,46,30.30
2014,07,30,15,47,30.30
2014,07,30,15,48,30.30
2014,07,30,15,49,30.30
2014,07,30,15,50,30.20
2014,07,30,15,51,30.10
2014,07,30,15,52,30.00
2014,07,30,15,53,29.90
2014,07,30,15,54,29.80
2014,07,30,15,55,29.60
2014,07,30,15,56,29.60
2014,07,30,15,57,29.50
2014,07,30,15,58,29.40
2014,07,30,15,59,29.30
2014,07,30,16,00,29.30
2014,07,30,16,01,29.20
2014,07,30,16,02,29.10
2014,07,30,16,03,29.00
2014,07,30,16,04,28.90
2014,07,30,16,05,28.80
2014,07,30,16,06,28.80
2014,07,30,16,07,28.70
2014,07,30,16,08,28.70
2014,07,30,16,09,28.70
2014,07,30,16,10,28.70
2014,07,30,16,11,28.70
2014,07,30,16,12,28.70
2014,07,30,16,13,28.70
2014,07,30,16,14,28.60
2014,07,30,16,15,28.60
2014,07,30,16,16,28.50
2014,07,30,16,17,28.40
2014,07,30,16,18,28.40
2014,07,30,16,19,28.40
2014,07,30,16,20,28.30
2014,07,30,16,21,28.30
2014,07,30,16,22,28.30
2014,07,30,16,23,28.30
2014,07,30,16,24,28.30
2014,07,30,16,25,28.30
2014,07,30,16,26,28.40
2014,07,30,16,27,28.30
2014,07,30,16,28,28.30
2014,07,30,16,29,28.30
2014,07,30,16,30,28.30
2014,07,30,16,31,28.20
2014,07,30,16,32,28.20
2014,07,30,16,33,28.20
2014,07,30,16,34,28.20
2014,07,30,16,35,28.20
2014,07,30,16,36,28.20
2014,07,30,16,37,28.20
2014,07,30,16,38,28.10
2014,07,30,16,39,28.10
2014,07,30,16,40,28.20
2014,07,30,16,41,28.20
2014,07,30,16,42,28.20
2014,07,30,16,43,28.20
2014,07,30,16,44,28.20
2014,07,30,16,45,28.20
2014,07,30,16,46,28.20
2014,07,30,16,47,28.20
2014,07,30,16,48,28.20
2014,07,30,16,49,28.20
2014,07,30,16,50,28.10
2014,07,30,16,51,28.10
2014,07,30,16,52,28.10
2014,07,30,16,53,28.10
2014,07,30,16,54,28.10
2014,07,30,16,55,28.10
2014,07,30,16,56,28.00
2014,07,30,16,57,28.00
2014,07,30,16,58,28.00
2014,07,30,16,59,27.90
2014,07,30,17,00,27.90
2014,07,30,17,01,27.90
2014,07,30,17,02,27.80
2014,07,30,17,03,27.80
2014,07,30,17,04,27.80
2014,07,30,17,05,27.80
2014,07,30,17,06,27.80
2014,07,30,17,07,27.80
2014,07,30,17,08,27.80
2014,07,30,17,09,27.80
2014,07,30,17,10,27.80
2014,07,30,17,11,27.90
2014,07,30,17,12,27.90
2014,07,30,17,13,27.90
2014,07,30,17,14,27.90
2014,07,30,17,15,27.90
2014,07,30,17,16,27.90
2014,07,30,17,17,27.90
2014,07,30,17,18,27.90
2014,07,30,17,19,27.80